Torna al catalogo

THOR ABLESTAR DEB

AttivoPO
NORAD 1504·DEBRIS·🇺🇸 United States

Lanciato Aug 13, 1965 da Vandenberg Space Force Base

Loading…

Prossimi Passaggi (prossime 24 ore)

TLE

AggiornatoSource: Space-Track

Epoca: Sep 14, 2026, 10:43 UTC

1 01504U 65065A   26257.44712095  .00000146  00000-0  24807-3 0  9991
2 01504  89.9645 241.3440 0064744 326.1410 187.2398 13.40431766979663

Traccia THOR ABLESTAR DEB in tempo reale con AllMySat

Download on the App Store